Regional Weather Roundup
Issued by NWS

Home | Current Version | Previous Version | Text Only | Print | Product List | Glossary On
Versions: 1 2 3 4 5 6 7 8 9 10 11 12 13 14 15 16 17 18 19 20 21 22 23 24 25 26 27 28 29 30 31 32 33 34 35 36 37 38 39 40 41 42 43 44 45 46 47 48 49 50
000
ASUS44 KOUN 181810
RWROK

WEATHER ROUNDUP FOR OKLAHOMA
NATIONAL WEATHER SERVICE NORMAN OK
1200 PM CST SUN FEB 18 2018

NOTE: "FAIR" INDICATES FEW OR NO CLOUDS BELOW 12,000 FEET WITH NO
      SIGNIFICANT WEATHER AND/OR OBSTRUCTIONS TO VISIBILITY.

OKZ001>007-009>012-014-015-017-181900-
NORTHWEST OKLAHOMA AND THE PANHANDLE

CITY           SKY/WX    TMP DP  RH WIND       PRES   REMARKS
GAGE           SUNNY     60  41  49 S32G43    29.80F
6HR MIN TEMP:  41; 6HR MAX TEMP:  60;

GUYMON         SUNNY     65  35  33 SW29G40   29.69F
ENID/WOODRING  CLOUDY    50  45  81 S21G30    29.92F
$$

OKZ016-021>023-033>039-044-045-181900-
SOUTHWEST OKLAHOMA

CITY           SKY/WX    TMP DP  RH WIND       PRES   REMARKS
LAWTON/REGL    CLOUDY    54  46  74 SE14      29.99F
6HR MIN TEMP:  30; 6HR MAX TEMP:  54;

LAWTON/FT SILL CLOUDY    54  50  87 S14       29.97F
FREDERICK      CLOUDY    58  45  62 S21       29.93F
CLINTON        CLOUDY    51  44  77 S28G35    29.92F
HOBART         PTSUNNY   55  46  71 S23G35    29.92F
ALTUS AFB      CLOUDY    57  43  59 S20       29.94F
$$

OKZ018>020-024>031-181900-
CENTRAL OKLAHOMA

CITY           SKY/WX    TMP DP  RH WIND       PRES   REMARKS
OKLAHOMA CITY  CLOUDY    46  43  89 S21G26    29.97F
6HR MIN TEMP:  30; 6HR MAX TEMP:  46;

OKC/WILEY POST CLOUDY    48  44  86 S22       29.95F
OKC/TINKER AFB CLOUDY    47  44  90 S14       29.97F
STILLWATER     CLOUDY    48  41  76 S21G30    29.98F
GUTHRIE        CLOUDY    50  42  74 S15G26    29.97F
$$

OKZ008-013-054>072-181900-
NORTHEAST OKLAHOMA

CITY           SKY/WX    TMP DP  RH WIND       PRES   REMARKS
TULSA          CLOUDY    48  40  73 S24       30.04F
6HR MIN TEMP:  40; 6HR MAX TEMP:  49;

TULSA/JONES    CLOUDY    47  39  74 S15G23    30.04F
PONCA CITY     CLOUDY    50  41  71 S21G30    29.95F
BARTLESVILLE   CLOUDY    48  38  68 S17G30    30.02F
MUSKOGEE       PTSUNNY   51  40  65 S18G24    30.09F
$$

OKZ032-040>043-046>053-073>077-181900-
SOUTH CENTRAL/SOUTHEAST OKLAHOMA

CITY           SKY/WX    TMP DP  RH WIND       PRES   REMARKS
ARDMORE/DWNTWN CLOUDY    50  45  81 S12       30.06F
MCALESTER      CLOUDY    49  44  83 SE10G16   30.08F
$$




USA.gov is the U.S. government's official web portal to all federal, state and local government web resources and services.